NOAA 16 DEB, 41196

Orbit data source: Space-Track

NOAA 16 DEB, 41196 is space debris in SSO originally from a launch on Thu, 21 Sep 2000 UTC launched from the Air Force Western Test Range (AFWTR). Debris objects in space refer to the collection of defunct objects orbiting the Earth. Examples of debris include non-operational satellites, rocket bodies, and fragments generated from explosions, collisions, or faulty payload assembly.

Loading next visibility...
Identifier
41196, 2000-055CZ
Orbit
SSO
Country
Flag of USUS
Related business
Manufacturer
Unknown
Mission
Spacecraft
Bus & Motor
Unknown
Mass
Unknown
Launch date (UTC)
2000-09-21 (26 years ago)
Launch vehicle
Unknown
Launch site
Air Force Western Test Range (AFWTR)
Object type
Payload
Rocket body
Debris
Shape & HBR
Unknown shape, 0.1 m
Radar Cross Section
Medium (>0.1 m² and <1 m²)

Expand to show TLE details & history
Last TLE update: 1 day ago

TLE from 1 day ago
0 NOAA 16 DEB
1 41196U 00055CZ  26236.27118103  .00002081  00000-0  10869-2 0  9990
2 41196  98.7351 255.9845 0054703 105.6673 255.0545 14.14725424547771
Epoch: 2026-08-24T06:30Z
TLE epoch observation values (Epoch: 2026-08-24T06:30:30.040Z)
Latitude
-0.00002°
Longitude
-174.19595°
Altitude
856.544 km
Speed
7.419 km/s
True Right ascension
17h 03m 56s
True Declination
0° 00' 00"
Sunlit
Object was in daylight at epoch
Visualization orbit readout
Latitude
Unknown
Longitude
Unknown
Altitude
Unknown
Speed
Unknown
Apparent Right ascension
Unknown
Apparent Declination
Unknown
Sunlit
N/A
Visualization observer readout
Local Sidereal Time
07:57:19
Azimuth
Unknown
Elevation
Unknown
Doppler factor
Unknown
Orbital elements
Apogee altitude
879.901 km
Perigee altitude
800.925 km
Semi-major axis
7,218.55 km
Eccentricity
0.00547
Inclination
98.7351°
RAAN
255.9845°
Arg. of periapsis
105.6673°
True anomaly
254.44993°
Mean anomaly
255.0545°
Eccentric anomaly
254.75211°
Mean motion
3.5389 °/min
Orbital period
101.73 mins
BSTAR
0.0010869
Loading maneuver chart data...
Computing Atmospheric mass density...
Loading historical data...
Loading historical data...
Loading historical data...
Loading historical data...
Loading historical data...
Loading historical data...
Loading historical data...

Documentation

Showing up to 5 results
|